Tracking 25686 objects as of 26-May-2022
HD Live streaming from Space Station
objects crossing your sky now

DMSP 5D-2 F11 DEB

Track DMSP 5D-2 F11 DEB now!
10-day predictions


NORAD ID: 28349
Int'l Code: 1991-082BN
Perigee: 767.3 km
Apogee: 876.1 km
Inclination: 98.9 °
Period: 101.2 minutes
Semi major axis: 7192 km
RCS: 0.01 m2 (small)
Launch date: November 28, 1991
Source: United States (US)
Launch site: AIR FORCE WESTERN TEST RANGE (AFWTR)

Note: This is SATELLITE DEBRIS
aabbcc
Your satellite tracking list
Your tracking list is empty




NASA's NSSDC Master Catalog

Two Line Element Set (TLE):
1 28349U 91082BN  22144.31422549  .00004972  00000-0  21536-2 0  9990
2 28349  98.9337 166.1261 0075642  39.9116  25.5110 14.23205160927403
Source of the keplerian elements: AFSPC